Date,TemperatureHighF,TemperatureAvgF,TemperatureLowF,DewpointHighF,DewpointAvgF,DewpointLowF,HumidityHigh,HumidityAvg,HumidityLow,PressureMaxIn,PressureMinIn,WindSpeedMaxMPH,WindSpeedAvgMPH,GustSpeedMaxMPH,PrecipitationSumIn
2013-1-1,12.6,2.7,-9.9,9.1,-1.3,-14.2,91,83,63,30.17,29.94,15,4,20,0.00
2013-1-2,18.1,15.9,11.1,17.0,14.4,9.1,95,93,91,29.99,29.88,6,2,8,0.00
2013-1-3,23.0,15.6,10.2,18.3,10.4,5.2,96,81,52,30.12,29.84,14,8,19,0.00
2013-1-4,36.5,21.2,13.1,23.6,15.7,10.7,91,80,59,30.08,29.86,13,5,16,0.00
2013-1-5,31.6,21.5,12.2,22.7,17.6,9.9,95,85,66,30.06,29.82,7,3,11,0.00
2013-1-6,25.9,16.5,11.7,15.9,10.8,6.6,94,79,54,30.12,29.92,8,4,15,0.00
2013-1-7,41.7,26.4,12.6,26.8,19.6,7.4,88,76,55,29.92,29.71,21,8,22,0.01
2013-1-8,32.5,24.3,12.4,27.1,21.3,10.6,95,88,73,29.94,29.67,13,4,17,0.00
2013-1-9,33.3,27.6,21.4,26.6,21.2,15.9,88,77,65,30.25,29.70,29,9,32,0.25
2013-1-10,48.2,32.2,20.7,31.6,21.4,16.4,99,67,35,30.26,29.72,13,5,13,0.09
2013-1-11,36.7,33.7,31.8,36.4,33.4,31.6,99,99,99,29.72,29.32,8,2,10,0.08
2013-1-12,37.8,19.0,4.1,37.5,16.3,-0.7,99,89,76,29.97,29.30,16,8,21,0.02
2013-1-13,8.4,3.3,-1.5,2.5,-0.9,-4.6,86,82,73,30.08,29.94,10,5,11,0.00
2013-1-14,11.8,4.5,0.5,1.2,-1.1,-4.0,86,77,57,30.24,30.08,11,5,15,0.00
2013-1-15,24.3,13.6,4.5,12.9,6.9,0.6,87,75,58,30.19,29.64,16,5,17,0.00
2013-1-16,24.6,16.7,-2.0,23.7,10.0,-10.8,97,75,54,30.15,29.50,16,8,19,0.00
2013-1-17,11.5,0.2,-6.5,-1.1,-7.0,-11.8,80,71,55,30.27,27.72,13,4,17,0.00
2013-1-18,17.4,11.7,-1.7,15.8,8.8,-6.2,93,88,78,30.21,29.70,11,3,15,0.01
2013-1-19,27.3,15.3,-4.0,24.5,11.8,-9.8,95,86,69,30.05,29.55,27,9,29,0.00
2013-1-20,-0.2,-7.4,-13.4,-9.9,-13.7,-19.5,80,73,60,30.23,30.07,14,6,17,0.00
2013-1-21,-9.9,-16.0,-21.5,-20.1,-24.5,-28.4,71,64,49,30.13,30.08,16,7,22,0.00
2013-1-22,-0.6,-12.4,-23.6,-14.6,-21.3,-30.2,72,64,48,30.22,30.09,11,5,15,0.00
2013-1-23,7.9,-5.5,-16.6,-1.5,-13.9,-24.1,80,66,49,30.50,30.00,19,7,25,0.00
2013-1-24,1.8,-9.5,-23.8,-2.9,-17.2,-30.9,80,68,53,30.54,30.08,11,3,14,0.00
2013-1-25,17.2,7.2,-1.5,8.2,1.3,-6.3,85,76,65,30.18,29.82,11,5,12,0.00
2013-1-26,15.1,4.7,-11.9,6.8,-2.1,-17.7,81,73,64,30.26,30.09,8,3,12,0.00
2013-1-27,28.8,21.5,10.9,27.1,14.7,4.1,99,75,59,30.09,29.81,11,5,12,0.00
2013-1-28,30.0,26.8,20.7,28.4,26.2,20.5,99,98,92,29.86,29.65,8,2,11,0.00
2013-1-29,31.8,27.4,19.4,30.6,26.2,17.4,99,95,86,29.72,29.49,11,4,13,0.00
2013-1-30,19.4,11.0,3.2,17.5,6.7,-1.2,92,83,70,29.72,29.56,14,7,22,0.00
2013-1-31,4.8,-0.3,-14.1,-1.0,-6.1,-19.5,85,76,63,30.05,29.60,17,9,21,0.00
2013-2-1,-0.8,-11.3,-24.3,-11.7,-20.5,-30.4,75,63,44,30.12,30.00,10,5,17,0.00
2013-2-2,14.0,0.6,-16.6,-2.3,-10.1,-22.2,78,61,36,30.06,29.86,8,3,11,0.00
2013-2-3,10.4,2.6,-3.1,-0.8,-6.8,-11.5,80,65,45,29.93,29.84,15,6,17,0.00
2013-2-4,11.8,0.3,-17.9,1.1,-11.1,-24.2,81,59,40,29.96,29.64,10,3,11,0.00
2013-2-5,23.9,12.2,5.7,10.5,4.0,-2.5,88,70,48,29.98,29.56,10,4,13,0.00
2013-2-6,20.5,14.2,7.0,19.8,8.9,-0.9,97,79,60,30.03,29.94,12,4,15,0.00
2013-2-7,22.3,18.7,12.2,20.4,17.0,10.6,98,93,90,30.23,30.03,10,4,14,0.00
2013-2-8,23.7,13.3,4.1,18.0,10.5,1.7,95,89,75,30.31,30.17,10,2,10,0.00
2013-2-9,25.7,20.3,11.1,24.8,18.4,8.8,99,92,84,30.17,29.92,8,3,12,0.00
2013-2-10,28.9,25.1,22.5,28.7,24.8,22.2,99,99,98,29.92,29.32,26,9,26,0.13
2013-2-11,29.1,22.3,16.2,28.9,19.5,13.3,99,89,75,29.87,29.32,15,7,21,0.00
2013-2-12,34.2,21.1,8.1,23.3,16.4,6.3,93,82,64,29.87,29.65,11,5,11,0.02
2013-2-13,41.9,28.7,18.9,29.8,22.9,17.5,95,79,61,29.66,29.55,10,4,10,0.00
2013-2-14,25.7,19.3,8.4,21.8,12.0,1.0,96,74,46,30.03,29.62,13,5,16,0.00
2013-2-15,18.3,7.0,-2.9,3.7,-0.6,-6.2,87,71,48,30.15,30.03,11,5,19,0.00
2013-2-16,25.2,8.6,-4.4,4.8,-2.1,-8.1,85,64,37,30.11,30.02,6,2,10,0.00
2013-2-17,25.3,13.7,-1.1,15.6,6.0,-7.4,81,71,60,30.02,29.62,12,5,14,0.00
2013-2-18,25.7,19.9,5.2,23.8,16.0,0.5,94,85,72,29.65,29.46,16,6,20,0.00
2013-2-19,8.1,0.2,-8.7,-0.2,-8.1,-14.6,80,68,50,30.22,29.65,24,12,33,0.02
2013-2-20,25.5,5.3,-11.4,-1.9,-8.5,-15.9,80,56,28,30.36,30.22,10,4,13,0.00
2013-2-21,22.5,11.6,-6.2,21.6,6.9,-14.4,98,81,56,30.39,30.10,19,6,24,0.00
2013-2-22,28.2,24.3,21.0,25.7,23.2,20.5,99,95,85,30.09,29.77,18,8,23,0.00
2013-2-23,38.5,26.4,19.4,27.1,21.9,18.5,97,84,61,29.85,29.74,12,4,12,0.06
2013-2-24,45.3,28.8,10.9,27.5,20.4,9.4,96,73,44,30.00,29.85,8,3,8,0.00
2013-2-25,42.8,27.4,16.5,25.7,19.3,12.4,92,73,48,30.02,29.95,8,2,10,0.00
2013-2-26,41.7,26.4,10.2,29.0,19.6,7.9,94,76,58,30.01,29.91,11,3,15,0.00
2013-2-27,40.3,27.1,19.8,27.5,21.9,18.3,96,82,59,30.00,29.87,11,4,14,0.00
2013-2-28,36.1,25.0,18.1,20.5,17.5,10.7,87,74,47,30.20,29.99,12,5,15,0.00
2013-3-1,28.2,16.5,5.2,13.9,8.7,2.2,87,72,52,30.31,30.20,11,4,15,0.00
2013-3-2,37.8,17.0,-3.6,18.2,5.6,-7.1,88,66,22,30.26,30.09,8,3,8,0.00
2013-3-3,34.2,18.8,4.8,15.6,7.5,-5.4,91,67,23,30.08,29.97,12,5,15,0.00
2013-3-4,30.7,23.3,19.2,23.6,17.7,12.9,97,80,53,30.01,29.94,21,10,25,0.00
2013-3-5,25.7,22.0,16.7,24.5,20.8,14.8,98,95,92,30.19,29.97,11,5,24,0.00
2013-3-6,30.7,17.0,6.4,18.0,11.3,4.5,94,79,56,30.27,30.18,10,3,13,0.01
2013-3-7,29.1,20.3,1.2,20.8,12.2,-1.4,96,72,58,30.30,30.23,8,3,11,0.01
2013-3-8,43.3,27.3,15.4,28.7,21.5,14.1,97,80,55,30.25,30.05,9,3,11,0.00
2013-3-9,32.0,29.6,25.9,31.8,28.8,23.4,99,97,86,30.05,29.68,12,4,14,0.00
2013-3-10,31.1,26.7,22.1,30.9,24.1,18.5,99,90,83,29.94,29.71,8,2,9,0.00
2013-3-11,32.4,23.1,19.2,22.3,18.4,15.2,91,82,66,29.89,29.66,8,3,9,0.00
2013-3-12,27.0,19.2,14.2,16.4,13.3,6.6,94,78,59,30.04,29.68,14,6,17,0.00
2013-3-13,38.1,16.2,2.8,15.4,5.7,-1.0,86,66,33,30.20,30.03,13,4,13,0.05
2013-3-14,44.2,27.8,11.3,30.4,19.8,8.1,88,72,52,30.12,29.89,10,3,13,0.01
2013-3-15,31.5,24.6,16.2,27.5,17.5,6.8,92,75,52,29.93,29.85,13,5,18,0.00
2013-3-16,24.6,13.6,-1.3,14.3,6.2,-7.4,92,73,51,30.12,29.89,14,5,20,0.00
2013-3-17,27.7,10.0,-9.4,12.3,0.4,-13.5,83,66,43,30.16,29.81,15,5,16,0.00
2013-3-18,27.5,20.5,14.7,26.0,17.0,9.1,96,86,64,29.81,29.41,17,8,23,0.00
2013-3-19,25.3,12.5,4.8,11.6,4.4,-2.8,89,71,46,29.94,29.50,24,12,27,0.01
2013-3-20,21.9,9.8,0.7,5.3,0.2,-4.9,79,65,47,30.00,29.93,15,7,23,0.00
2013-3-21,35.8,17.8,1.4,14.5,7.3,-1.7,88,65,40,29.99,29.91,11,3,12,0.00
2013-3-22,42.4,23.4,6.1,24.0,14.2,3.1,90,69,42,29.99,29.92,9,3,11,0.00
2013-3-23,45.1,26.0,12.4,25.4,19.2,10.6,95,77,43,30.06,29.99,10,3,12,0.00
2013-3-24,32.9,26.7,20.1,24.1,21.1,14.4,93,79,66,30.04,29.94,12,4,14,0.00
2013-3-25,38.7,27.4,11.8,22.6,17.2,9.1,89,66,50,30.09,29.96,14,4,14,0.00
2013-3-26,43.2,34.5,26.8,27.3,21.3,18.6,77,59,41,30.17,30.09,10,3,10,0.00
2013-3-27,50.7,35.6,24.8,24.6,19.4,14.3,78,54,29,30.22,30.17,8,2,10,0.00
2013-3-28,53.6,35.9,16.5,25.4,16.7,11.2,81,50,24,30.23,30.15,9,2,11,0.00
2013-3-29,55.8,40.1,24.3,34.7,24.9,15.3,72,56,31,30.18,29.95,10,3,11,0.00
2013-3-30,56.8,42.8,36.0,42.2,35.6,28.0,99,79,37,29.95,29.68,16,5,17,0.33
2013-3-31,36.7,30.1,20.5,29.4,20.0,6.7,94,67,42,29.91,29.60,18,8,24,0.00
2013-4-1,34.5,23.6,11.1,12.0,9.1,6.0,79,55,34,30.05,29.91,21,9,21,0.02
2013-4-2,38.8,25.3,11.7,13.8,9.2,4.4,87,54,28,30.21,30.06,13,5,19,0.00
2013-4-3,47.1,30.8,12.6,29.7,12.7,-0.6,75,49,25,30.24,29.85,17,5,17,0.00
2013-4-4,45.1,37.2,26.8,31.9,24.9,15.1,88,63,37,30.06,29.81,19,7,21,0.00
2013-4-5,38.5,30.2,14.5,24.2,17.2,10.4,91,59,40,30.15,29.93,10,5,14,0.00
2013-4-6,32.4,30.4,26.4,32.1,30.1,24.7,99,99,93,29.92,29.51,17,4,20,0.05
2013-4-7,40.3,33.7,30.7,34.9,31.9,30.5,99,93,76,29.82,29.60,7,1,7,0.21
2013-4-8,41.7,34.8,30.7,38.3,33.4,29.3,99,95,85,29.96,29.69,5,1,6,0.21
2013-4-9,43.5,34.2,28.6,32.7,26.4,22.7,99,74,49,30.10,29.95,14,5,14,0.01
2013-4-10,39.9,31.3,23.9,24.1,18.7,13.5,88,62,40,30.15,29.96,20,6,21,0.00
2013-4-11,29.8,26.9,25.0,27.0,24.0,20.9,99,89,69,29.97,29.71,34,15,34,1.98
2013-4-12,32.9,26.7,22.8,30.2,25.8,22.1,99,96,88,29.73,29.64,30,8,30,0.05
2013-4-13,39.9,27.4,18.1,27.4,21.8,17.2,97,80,57,29.86,29.69,7,2,11,0.07
2013-4-14,41.0,28.1,16.2,30.0,23.0,14.0,99,83,54,29.87,29.51,37,10,37,0.93
2013-4-15,34.7,32.0,29.7,33.2,31.3,29.4,99,97,93,29.73,29.41,26,4,35,0.56
2013-4-16,46.8,36.0,30.6,33.7,28.8,23.3,99,77,47,30.23,29.74,14,4,17,0.04
2013-4-17,34.9,31.3,27.5,30.3,28.4,27.3,99,89,79,30.26,29.95,14,6,15,0.00
2013-4-18,34.7,30.3,27.1,31.4,29.2,26.9,99,96,84,29.93,29.22,8,1,10,0.00
2013-4-19,36.0,27.6,17.4,28.0,21.4,7.5,99,79,49,29.62,29.17,24,3,24,0.08
2013-4-20,48.0,31.7,6.8,16.6,10.3,1.7,80,44,22,29.98,29.63,11,4,11,0.09
2013-4-21,37.2,30.6,21.6,34.8,25.8,14.5,99,82,66,29.99,29.71,14,5,14,0.17
2013-4-22,44.6,34.2,28.9,34.5,29.2,23.2,99,84,49,29.91,29.76,11,4,15,0.00
2013-4-23,48.0,36.4,27.0,35.9,23.6,15.4,99,65,34,29.85,29.68,14,3,15,0.06
2013-4-24,47.7,30.2,19.6,33.4,21.8,14.2,93,72,41,29.69,29.55,8,3,12,0.02
2013-4-25,50.4,35.5,24.8,29.9,25.5,21.7,99,71,37,29.81,29.61,11,4,15,0.00
2013-4-26,67.6,50.6,35.2,41.8,34.2,24.3,84,55,36,29.81,29.67,8,4,11,0.00
2013-4-27,73.8,55.5,37.9,38.0,34.3,28.7,77,49,26,29.81,29.56,8,3,12,0.00
2013-4-28,73.0,56.9,45.5,49.9,45.5,35.7,90,68,44,29.56,29.39,14,5,16,0.00
2013-4-29,70.5,50.8,35.4,45.1,34.9,27.3,98,60,22,29.53,29.33,11,4,14,0.00
2013-4-30,68.9,52.9,37.9,54.7,40.5,24.0,99,69,24,29.58,29.12,21,9,30,0.11
2013-5-1,49.5,38.2,32.0,37.0,27.2,23.0,78,65,53,30.15,29.59,13,7,16,0.00
2013-5-2,43.3,34.5,27.9,27.5,24.4,22.4,86,67,51,30.21,30.11,11,4,14,0.00
2013-5-3,36.0,30.0,24.3,30.7,27.0,22.6,99,89,66,30.11,29.90,8,3,12,0.01
2013-5-4,36.7,32.8,28.9,35.9,32.4,28.7,99,99,95,29.92,29.87,8,3,11,0.12
2013-5-5,54.7,40.4,33.3,44.8,37.4,33.0,99,90,69,29.90,29.80,8,3,11,0.01
2013-5-6,73.9,54.4,30.6,53.2,43.7,30.3,99,71,45,29.82,29.70,7,2,10,0.00
2013-5-7,78.4,60.5,41.4,50.0,45.2,39.7,99,62,31,29.76,29.65,16,3,16,0.00
2013-5-8,77.0,60.3,44.1,55.1,47.2,39.2,85,64,38,29.72,29.65,7,2,10,0.01
2013-5-9,54.1,43.9,31.5,48.1,36.3,26.9,90,75,58,29.87,29.70,17,8,22,0.00
2013-5-10,54.1,39.9,29.3,32.0,25.2,17.7,87,58,28,29.87,29.55,15,6,20,0.00
2013-5-11,45.3,37.7,32.5,35.6,28.6,20.8,86,70,54,29.80,29.59,23,9,27,0.08
2013-5-12,54.3,39.1,24.6,24.2,20.8,15.9,86,52,28,29.83,29.75,15,5,17,0.00
2013-5-13,56.8,44.8,29.5,37.9,27.4,18.5,68,52,32,29.79,29.37,11,4,15,0.01
2013-5-14,76.3,54.0,34.7,53.5,40.7,29.2,96,64,30,29.48,29.11,16,5,23,0.05
2013-5-15,80.1,61.0,48.0,49.2,43.5,36.9,85,58,22,29.53,29.28,17,7,32,0.00
2013-5-16,72.3,57.8,45.0,42.1,38.1,34.1,75,51,28,29.71,29.51,14,5,17,0.00
2013-5-17,62.8,52.7,45.5,40.9,37.7,34.4,71,57,43,29.77,29.70,18,10,24,0.00
2013-5-18,53.8,47.6,40.5,53.5,46.3,36.7,99,96,65,29.72,29.54,11,6,14,0.40
2013-5-19,62.6,51.9,44.8,59.0,51.3,44.5,99,98,88,29.55,29.40,22,9,28,0.26
2013-5-20,50.4,45.8,43.5,50.1,45.6,43.3,99,99,99,29.42,29.28,24,13,30,0.45
2013-5-21,50.9,45.4,42.4,48.1,44.7,42.2,99,97,88,29.48,29.33,21,10,27,0.58
2013-5-22,55.0,46.7,43.0,47.2,43.5,38.1,99,90,63,29.74,29.47,24,6,24,0.18
2013-5-23,58.6,47.3,32.9,38.5,34.1,29.3,98,63,41,30.00,29.75,13,4,13,0.00
2013-5-24,68.2,50.8,29.3,38.1,33.5,27.0,92,56,31,30.06,29.90,11,4,13,0.00
2013-5-25,60.4,50.6,41.4,43.2,37.8,32.8,80,62,50,29.98,29.92,14,6,17,0.00
2013-5-26,69.6,53.6,40.1,44.3,35.7,30.7,70,52,38,29.97,29.80,17,6,21,0.00
2013-5-27,66.7,53.4,40.3,42.4,37.8,30.9,75,57,39,29.80,29.57,17,7,21,0.00
2013-5-28,66.4,54.4,45.5,50.2,43.3,36.7,77,66,55,29.57,29.41,14,5,16,0.00
2013-5-29,76.6,60.7,43.0,63.0,53.5,38.4,99,79,54,29.48,29.37,15,4,17,0.53
2013-5-30,72.9,61.8,54.1,65.5,59.4,53.9,99,93,73,29.40,29.21,11,6,13,0.11
2013-5-31,78.6,60.3,46.9,63.6,56.8,46.7,99,90,53,29.26,29.19,19,4,19,0.47
2013-6-1,63.1,51.2,44.4,59.2,49.9,41.2,99,95,86,29.59,29.24,9,3,12,0.06
2013-6-2,67.1,52.8,39.0,42.7,40.1,36.8,96,66,38,29.70,29.59,8,4,14,0.00
2013-6-3,68.4,53.8,36.5,43.1,37.8,33.4,99,59,35,29.75,29.67,9,3,11,0.00
2013-6-4,63.5,53.6,48.4,46.1,35.8,28.9,62,51,38,29.81,29.74,13,5,14,0.00
2013-6-5,49.1,46.1,43.7,48.8,44.2,33.7,99,94,61,29.77,29.69,12,4,14,0.35
2013-6-6,61.9,49.5,42.1,50.2,45.8,39.1,99,88,58,29.73,29.67,15,4,17,0.02
2013-6-7,69.6,53.7,42.1,46.6,42.4,37.9,97,70,33,29.71,29.59,9,2,10,0.00
2013-6-8,73.6,61.0,45.9,53.2,46.4,35.1,80,60,46,29.62,29.58,14,5,15,0.00
2013-6-9,58.3,52.5,46.2,53.9,49.4,40.8,99,90,70,29.64,29.50,20,6,21,0.45
2013-6-10,73.4,59.3,46.8,62.6,55.6,46.5,99,89,68,29.52,29.47,6,2,8,0.01
2013-6-11,86.7,70.5,55.6,63.9,55.1,47.3,99,65,28,29.55,29.47,7,2,9,0.00
2013-6-12,86.4,68.2,48.9,57.6,51.7,47.0,95,60,32,29.59,29.47,7,2,11,0.00
2013-6-13,78.1,63.6,49.3,57.1,50.6,45.2,99,66,39,29.77,29.59,12,3,14,0.00
2013-6-14,75.6,59.9,48.0,55.4,48.8,42.5,92,69,49,29.78,29.57,12,5,14,0.00
2013-6-15,82.9,64.1,50.4,65.5,52.7,39.4,88,67,47,29.58,29.46,8,2,8,0.00
2013-6-16,83.3,66.6,54.5,67.4,54.7,48.1,97,68,40,29.52,29.44,14,4,26,0.24
2013-6-17,61.9,52.9,41.2,54.1,47.1,36.7,99,82,58,29.73,29.49,13,5,14,0.00
2013-6-18,74.1,56.3,35.8,44.7,39.1,33.6,94,58,30,29.80,29.69,13,3,15,0.00
2013-6-19,83.7,67.7,48.7,60.9,52.2,39.2,75,59,43,29.71,29.58,7,2,9,0.00
2013-6-20,66.2,62.4,57.9,62.9,59.2,54.1,99,89,76,29.69,29.60,12,4,14,0.25
2013-6-21,71.4,61.0,52.5,66.7,59.5,52.3,99,95,81,29.72,29.30,30,5,38,1.06
2013-6-22,61.0,56.5,53.1,60.7,56.2,52.8,99,99,99,29.70,29.55,16,5,16,0.02
2013-6-23,80.8,64.2,54.7,71.0,60.3,54.4,99,89,60,29.55,29.35,11,4,15,0.46
2013-6-24,88.2,73.6,57.6,62.3,59.5,55.1,99,66,37,29.53,29.44,7,2,8,0.00
2013-6-25,92.1,76.1,59.5,72.6,65.3,57.2,99,73,45,29.47,29.38,12,2,12,0.00
2013-6-26,86.0,69.6,63.1,73.6,66.2,59.9,99,90,65,29.41,29.32,7,2,11,0.20
2013-6-27,84.6,72.5,60.8,67.3,62.0,57.8,99,73,45,29.42,29.35,12,4,18,0.00
2013-6-28,79.2,66.0,59.4,66.7,62.1,59.1,99,88,59,29.43,29.32,8,3,11,0.45
2013-6-29,76.5,65.3,53.6,65.3,58.4,52.8,99,80,52,29.62,29.43,8,1,12,0.01
2013-6-30,90.7,69.3,49.8,61.9,54.8,49.6,99,67,29,29.74,29.63,8,2,8,0.00
2013-7-1,75.7,64.2,51.4,57.5,52.1,39.4,97,67,48,29.85,29.75,11,4,14,0.00
2013-7-2,80.6,63.2,45.1,52.8,42.9,37.7,83,52,25,29.82,29.70,10,3,11,0.00
2013-7-3,87.1,67.9,45.9,61.3,49.9,40.5,88,57,33,29.72,29.58,11,2,11,0.00
2013-7-4,88.5,72.0,51.3,64.2,57.2,45.3,88,62,35,29.59,29.47,7,2,11,0.00
2013-7-5,89.1,76.9,64.0,68.0,62.6,57.9,81,63,43,29.49,29.40,17,4,17,0.00
2013-7-6,82.8,73.3,67.6,71.0,66.3,63.3,99,79,61,29.50,29.43,8,2,10,0.38
2013-7-7,70.7,64.5,52.5,67.7,63.1,52.3,99,95,83,29.59,29.44,11,5,14,0.01
2013-7-8,86.4,62.7,52.3,69.4,59.6,52.1,99,91,57,29.64,29.55,8,2,10,0.00
2013-7-9,77.7,63.3,53.8,69.2,60.9,53.5,99,92,74,29.60,29.38,7,3,10,0.18
2013-7-10,81.1,66.9,55.4,58.9,56.3,53.7,97,71,44,29.64,29.48,8,4,12,0.00
2013-7-11,86.4,69.7,51.4,66.4,57.9,51.2,99,71,41,29.71,29.57,5,2,10,0.00
2013-7-12,88.5,75.2,64.0,68.1,62.8,57.4,82,67,49,29.59,29.49,14,4,16,0.00
2013-7-13,74.3,69.2,63.9,69.0,66.4,62.3,99,91,67,29.67,29.51,7,2,10,0.26
2013-7-14,79.5,69.8,66.2,69.5,66.0,62.8,99,88,68,29.80,29.66,4,2,8,0.14
2013-7-15,87.3,71.2,63.9,73.7,67.4,63.3,99,89,64,29.84,29.77,8,3,12,0.07
2013-7-16,93.6,77.8,61.3,76.0,68.5,61.1,99,76,47,29.78,29.72,10,3,16,0.00
2013-7-17,94.3,81.5,69.1,73.4,69.6,65.7,89,69,47,29.79,29.69,10,4,17,0.00
2013-7-18,95.4,80.7,66.9,75.8,71.0,65.7,99,75,51,29.70,29.25,17,4,20,0.01
2013-7-19,83.1,73.7,65.7,71.7,63.6,56.5,99,73,45,29.43,29.22,13,5,17,0.04
2013-7-20,75.2,63.4,51.4,56.5,50.4,47.4,88,64,44,29.59,29.43,8,3,13,0.00
2013-7-21,75.2,59.6,47.8,60.1,51.6,45.6,99,76,57,29.60,29.42,12,5,14,0.00
2013-7-22,82.8,66.5,53.6,71.9,59.1,48.6,99,79,52,29.42,29.21,13,4,18,0.00
2013-7-23,78.4,63.0,50.7,55.6,52.2,48.8,93,71,44,29.60,29.40,6,2,9,0.00
2013-7-24,79.2,64.3,48.7,60.0,54.8,47.7,98,74,47,29.64,29.51,5,2,11,0.00
2013-7-25,82.9,65.8,54.5,65.9,59.4,54.2,99,82,49,29.94,29.47,8,3,15,0.15
2013-7-26,62.6,55.0,48.2,62.3,53.0,45.6,99,93,77,30.10,27.39,11,2,11,0.12
2013-7-27,54.7,49.7,46.2,51.6,48.4,45.4,99,95,85,30.07,29.89,9,4,12,0.30
2013-7-28,71.6,56.7,48.6,58.0,51.7,48.3,99,85,55,30.04,29.93,8,2,10,0.00
2013-7-29,80.6,63.6,46.6,63.3,53.6,46.3,99,74,44,30.11,30.04,4,1,5,0.00
2013-7-30,75.2,63.9,56.5,65.0,59.8,53.0,99,87,68,30.10,30.02,5,1,8,0.02
2013-7-31,78.8,67.3,57.6,65.6,58.0,52.1,99,75,45,30.03,29.94,12,4,15,0.11
2013-8-1,79.9,65.1,54.7,60.8,55.3,52.0,93,73,49,29.97,29.83,11,3,11,0.09
2013-8-2,77.4,63.7,51.1,61.4,54.0,49.3,99,74,45,30.02,29.83,7,2,12,0.01
2013-8-3,78.4,61.7,48.9,57.5,52.1,47.9,99,74,42,30.20,30.02,8,2,11,0.00
2013-8-4,80.1,61.6,44.8,58.2,51.7,44.3,99,74,42,30.23,30.00,7,2,7,0.00
2013-8-5,78.3,61.7,54.7,67.8,59.4,51.7,99,93,68,30.00,29.77,6,1,7,0.51
2013-8-6,81.1,66.1,55.9,66.5,60.3,55.7,99,83,53,29.80,29.71,5,1,8,0.02
2013-8-7,77.9,64.1,51.8,59.2,53.9,48.6,99,73,42,30.00,29.76,8,3,12,0.00
2013-8-8,76.3,61.2,51.8,59.5,54.6,48.7,96,81,51,30.02,29.95,6,1,8,0.00
2013-8-9,70.0,60.3,50.2,54.9,53.2,49.6,99,79,56,30.09,29.95,10,3,15,0.00
2013-8-10,82.9,66.1,54.7,60.3,55.5,52.1,98,72,41,30.14,30.05,5,1,8,0.00
2013-8-11,81.9,65.8,52.2,61.6,56.0,50.8,97,74,45,30.08,29.98,7,1,9,0.00
2013-8-12,78.6,62.8,47.3,61.0,54.6,45.7,99,78,45,30.08,29.97,9,2,10,0.00
2013-8-13,77.2,59.8,45.5,57.1,49.5,44.3,99,73,45,30.18,30.08,6,1,7,0.00
2013-8-14,80.2,61.0,42.8,60.7,49.7,41.9,99,71,41,30.18,30.06,5,1,8,0.00
2013-8-15,51.8,50.7,49.8,49.6,48.3,47.3,93,91,90,30.06,30.05,0,0,2,0.00
2013-8-16,86.2,68.7,49.6,64.1,57.2,48.3,98,70,43,30.13,30.07,8,1,8,0.00
2013-8-17,84.9,70.7,58.5,61.2,57.5,54.9,89,65,43,30.14,30.03,10,3,10,0.00
2013-8-18,83.7,70.8,59.0,61.9,58.0,54.7,87,66,44,30.08,29.93,11,4,11,0.00
2013-8-19,90.3,75.2,63.5,72.9,65.6,58.7,88,73,55,29.94,29.84,7,3,11,0.00
2013-8-20,93.0,79.0,66.2,74.9,70.8,65.9,99,78,53,29.87,29.79,7,3,10,0.00
2013-8-21,90.7,76.8,60.4,75.1,66.9,57.8,99,76,35,30.01,29.73,8,2,11,0.00
2013-8-22,85.8,70.9,54.0,58.0,53.5,49.3,93,58,33,30.13,30.01,6,2,10,0.00
2013-8-23,86.9,67.6,48.2,58.5,53.2,46.6,99,66,33,30.15,30.01,6,2,8,0.00
2013-8-24,89.6,74.6,60.3,72.2,66.9,58.7,97,78,55,30.05,29.84,11,4,17,0.00
2013-8-25,97.9,85.0,74.3,78.6,74.8,71.2,99,73,53,29.90,29.85,8,3,14,0.11
2013-8-26,95.4,78.3,68.0,81.1,73.7,67.7,99,88,52,29.94,29.84,11,2,14,0.22
2013-8-27,90.9,75.3,66.6,77.0,70.7,66.3,99,87,59,29.92,29.78,7,2,9,0.63
2013-8-28,90.7,73.4,61.5,74.4,68.6,61.3,99,87,50,30.01,29.91,4,1,5,0.00
2013-8-29,76.1,68.9,64.6,74.3,68.3,64.3,99,98,88,30.00,29.77,14,2,14,0.43
2013-8-30,84.9,71.7,61.9,68.5,65.1,60.7,99,82,52,29.92,29.79,9,3,16,0.00
2013-8-31,90.0,71.3,59.4,71.7,64.9,59.1,99,83,52,29.88,29.65,8,2,11,0.07
2013-9-1,75.6,63.5,54.9,64.7,59.5,50.3,99,87,69,29.93,29.63,14,4,14,0.00
2013-9-2,72.7,57.1,46.4,54.5,49.9,45.0,96,78,50,30.04,29.93,6,2,11,0.00
2013-9-3,82.4,63.1,43.5,62.5,54.4,43.3,99,76,47,29.99,29.88,9,3,12,0.00
2013-9-4,79.3,63.6,50.5,60.1,56.0,49.7,99,79,49,30.13,29.90,11,3,13,0.00
2013-9-5,81.3,61.1,43.5,60.8,52.6,43.0,99,77,43,30.20,30.06,9,2,9,0.00
2013-9-6,91.0,73.6,56.3,73.2,66.0,53.6,99,79,53,30.05,29.81,8,2,12,0.00
2013-9-7,89.1,68.4,56.5,73.8,64.2,56.1,99,88,54,30.06,29.81,13,2,17,0.00
2013-9-8,65.5,57.3,53.4,58.6,55.5,53.1,99,94,73,30.07,29.85,11,4,14,0.00
2013-9-9,65.5,61.0,57.7,65.2,60.8,57.5,99,99,99,29.85,29.61,8,2,13,0.32
2013-9-10,81.9,67.4,61.2,67.8,64.2,60.9,99,91,61,29.87,29.66,11,3,13,0.01
2013-9-11,81.7,66.0,51.3,64.4,58.2,50.7,99,80,43,29.99,29.85,11,4,13,0.04
2013-9-12,70.9,56.0,42.8,55.4,49.6,41.5,99,82,48,30.16,29.99,9,3,12,0.01
2013-9-13,70.9,53.7,37.9,55.5,46.0,37.7,99,78,48,30.18,29.99,5,1,7,0.00
2013-9-14,71.2,60.2,48.2,57.5,52.7,45.1,99,78,56,29.99,29.83,8,3,14,0.20
2013-9-15,55.2,50.8,39.7,54.5,50.2,39.5,99,98,87,30.23,29.86,8,2,11,0.21
2013-9-16,70.2,51.7,36.9,56.0,45.1,36.6,99,81,47,30.32,30.16,4,2,7,0.01
2013-9-17,73.0,55.5,38.7,54.9,47.9,38.3,99,78,51,30.17,29.87,11,3,11,0.00
2013-9-18,63.1,59.0,55.4,62.9,58.5,53.3,99,98,89,29.88,29.67,8,4,11,0.01
2013-9-19,66.6,63.9,60.6,66.3,63.6,60.4,99,99,99,29.69,29.57,9,3,10,0.37
2013-9-20,64.4,55.9,47.5,60.2,51.6,45.8,99,86,62,29.78,29.62,15,5,15,0.04
2013-9-21,66.0,50.2,39.2,46.2,42.7,37.9,99,78,46,29.88,29.77,8,3,11,0.00
2013-9-22,62.2,49.5,37.0,49.9,44.1,36.8,99,84,60,29.93,29.83,13,6,17,0.00
2013-9-23,70.2,56.9,46.9,56.0,50.7,45.6,95,81,60,29.88,29.82,14,5,16,0.00
2013-9-24,76.3,59.3,47.5,58.8,52.5,47.2,99,81,53,29.90,29.85,12,3,12,0.00
2013-9-25,76.8,56.0,46.0,60.0,51.9,45.8,99,88,52,29.90,29.83,11,4,11,0.00
2013-9-26,69.8,58.0,50.9,59.2,54.2,50.6,99,88,67,29.90,29.81,15,7,20,0.00
2013-9-27,71.6,63.9,56.5,66.2,59.2,54.2,98,85,73,29.87,29.73,12,5,14,0.05
2013-9-28,69.3,58.9,44.1,61.8,54.7,43.8,99,87,73,29.76,29.45,13,6,23,0.32
2013-9-29,75.4,58.2,42.4,53.1,47.4,42.2,99,71,39,29.81,29.67,9,3,10,0.00
2013-9-30,77.0,63.4,55.9,56.4,51.8,47.4,83,67,49,29.67,29.51,9,4,14,0.00
2013-10-1,74.8,63.1,51.8,55.2,46.3,38.3,86,57,29,29.81,29.45,19,5,22,0.01
2013-10-2,81.0,57.8,43.7,51.6,43.4,35.2,99,65,20,29.92,29.83,8,2,11,0.22
2013-10-3,55.6,51.3,49.3,51.9,50.3,49.0,99,96,86,29.92,29.82,11,4,14,0.19
2013-10-4,55.4,50.4,48.2,49.7,47.4,43.1,99,90,76,30.00,29.92,18,8,37,0.11
2013-10-5,48.7,46.3,45.7,46.9,46.0,44.7,99,99,86,29.94,29.65,27,12,31,0.97
2013-10-6,51.6,46.3,40.1,49.1,45.6,39.8,99,98,89,29.66,29.56,11,3,11,0.09
2013-10-7,64.9,48.6,38.1,49.0,41.4,37.0,99,79,46,29.84,29.66,9,2,11,0.01
2013-10-8,75.7,58.7,42.8,52.4,45.5,38.2,85,64,44,29.84,29.65,9,4,12,0.00
2013-10-9,77.2,64.5,54.1,57.3,51.7,47.8,83,64,49,29.93,29.75,11,4,13,0.00
2013-10-10,73.2,59.0,50.2,54.1,49.3,46.2,87,72,49,29.93,29.81,14,4,14,0.00
2013-10-11,70.5,60.7,50.9,57.4,52.6,47.1,91,75,61,29.83,29.52,22,7,25,0.02
2013-10-12,66.0,51.6,45.1,57.9,46.8,43.4,99,84,69,29.92,29.52,16,7,20,0.05
2013-10-13,59.7,46.6,35.4,44.7,37.3,31.1,99,73,41,30.25,29.93,13,4,14,0.00
2013-10-14,51.4,43.2,34.3,42.3,38.6,30.9,95,84,63,30.27,30.00,17,3,18,0.06
2013-10-15,46.2,44.3,41.0,46.0,43.6,39.2,99,98,79,29.99,29.64,19,8,22,0.79
2013-10-16,57.4,44.5,37.2,41.8,37.4,32.7,99,79,47,29.77,29.70,10,4,11,0.01
2013-10-17,47.5,40.9,34.0,45.8,39.5,31.7,99,95,85,29.70,29.63,7,2,12,0.26
2013-10-18,52.2,39.9,34.7,39.4,35.4,32.6,99,85,50,29.77,29.64,11,4,12,0.01
2013-10-19,46.4,36.1,30.7,39.5,33.7,28.9,99,91,72,29.64,29.52,9,2,10,0.04
2013-10-20,36.5,31.9,27.0,36.2,31.6,26.7,99,99,97,29.62,29.55,11,2,11,0.15
2013-10-21,32.7,30.6,27.5,32.0,28.5,24.4,99,92,80,29.72,29.63,21,4,21,0.00
2013-10-22,34.3,31.0,26.4,31.9,27.4,23.1,99,87,71,29.84,29.72,10,4,11,0.01
2013-10-23,37.4,30.8,27.5,28.8,25.9,22.8,97,83,62,29.87,29.77,11,6,14,0.00
2013-10-24,43.9,33.8,28.2,32.0,28.5,26.5,94,82,56,30.07,29.87,12,6,17,0.00
2013-10-25,48.0,37.4,26.4,40.1,31.1,25.6,97,79,56,30.07,29.51,22,6,24,0.01
2013-10-26,43.3,38.4,33.6,36.4,31.9,27.1,92,78,60,29.87,29.57,18,6,18,0.02
2013-10-27,51.4,37.3,29.3,34.9,29.2,21.7,85,73,53,30.07,29.60,14,5,14,0.00
2013-10-28,35.8,28.9,21.0,24.6,20.9,16.1,92,72,62,30.32,30.08,8,3,11,0.00
2013-10-29,35.4,28.0,19.0,32.1,25.5,17.4,99,91,69,30.28,29.98,4,1,9,0.00
2013-10-30,42.1,37.4,32.4,41.8,37.2,32.1,99,99,98,29.97,29.54,11,4,14,0.07
2013-10-31,44.6,42.0,38.7,44.3,41.7,38.4,99,99,99,29.53,29.20,8,2,9,0.06
2013-11-1,38.5,36.6,33.4,38.2,35.8,32.7,99,97,92,29.65,29.21,11,4,12,0.01
2013-11-2,45.7,34.8,29.7,37.8,31.2,25.7,99,88,59,29.92,29.65,7,2,8,0.00
2013-11-3,48.4,38.8,28.0,36.4,31.5,25.0,89,76,60,29.95,29.79,21,7,21,0.01
2013-11-4,43.5,40.1,32.2,41.3,36.1,31.2,99,86,73,29.89,29.63,20,6,27,0.20
2013-11-5,36.5,32.2,27.5,31.0,27.5,25.0,96,83,71,30.01,29.86,12,4,13,0.00
2013-11-6,36.3,29.7,23.9,26.2,22.7,19.5,87,75,58,29.93,29.81,13,5,18,0.00
2013-11-7,38.1,26.7,18.3,26.6,19.5,13.6,95,75,48,29.97,29.93,12,4,14,0.00
2013-11-8,34.0,27.3,15.6,32.5,24.5,12.9,99,89,76,29.96,29.44,17,5,21,0.00
2013-11-9,34.3,32.9,32.2,33.4,32.2,31.0,99,97,92,29.89,29.41,22,8,24,0.07
2013-11-10,40.3,33.4,22.6,31.2,28.0,17.2,96,81,62,30.05,29.87,15,7,18,0.00
2013-11-11,25.0,17.1,9.5,17.4,8.8,5.2,84,70,52,30.44,29.93,14,8,24,0.00
2013-11-12,28.0,16.2,8.2,10.8,7.8,5.3,89,71,41,30.47,30.12,14,6,20,0.00
2013-11-13,46.4,28.6,18.1,31.9,21.0,10.9,82,74,55,30.10,29.59,14,7,19,0.00
2013-11-14,47.1,37.4,29.3,37.5,32.3,26.7,94,82,65,29.62,29.54,5,2,9,0.00
2013-11-15,51.4,36.4,30.7,38.7,33.4,29.0,99,90,57,29.62,29.47,8,3,10,0.00
2013-11-16,44.1,41.1,38.1,41.3,38.3,34.6,99,90,84,29.46,29.11,10,4,10,0.18
2013-11-17,41.9,36.8,27.1,41.6,36.0,24.1,99,97,88,29.46,29.09,21,8,27,0.02
2013-11-18,27.0,23.9,15.1,24.2,19.1,12.5,89,81,76,30.02,29.47,22,9,24,0.00
2013-11-19,37.8,26.1,12.9,27.1,20.2,11.1,95,79,62,30.05,29.69,16,6,20,0.00
2013-11-20,43.0,39.5,32.7,31.2,27.8,25.4,90,63,52,29.84,29.68,12,4,16,0.00
2013-11-21,33.6,25.6,17.2,32.9,21.3,12.4,97,84,75,30.27,29.84,16,6,20,0.00
2013-11-22,27.1,15.1,5.7,14.2,9.1,2.1,93,78,44,30.33,30.15,17,7,19,0.00
2013-11-23,16.2,6.9,-1.8,3.9,-0.0,-6.4,89,73,53,30.51,30.34,11,5,14,0.00
2013-11-24,29.7,14.4,-4.0,20.4,6.3,-8.0,84,70,57,30.40,29.57,18,6,24,0.00
2013-11-25,34.5,30.0,19.4,27.8,23.2,8.6,92,76,62,29.79,29.53,21,10,23,0.00
2013-11-26,19.2,12.3,7.2,13.1,5.4,1.4,85,74,58,30.11,29.78,20,8,22,0.00
2013-11-27,23.7,12.5,2.1,15.0,8.9,-0.5,94,86,60,30.11,29.88,5,2,8,0.00
2013-11-28,24.1,15.2,3.6,17.2,12.2,1.4,94,88,72,30.25,29.86,9,2,11,0.00
2013-11-29,23.0,14.0,0.3,18.9,10.7,-2.3,94,86,77,30.26,29.91,10,2,11,0.00
2013-11-30,40.1,27.5,22.6,28.1,22.2,18.8,89,81,62,29.95,29.80,8,3,10,0.02
2013-12-1,27.1,24.3,21.4,23.4,21.2,18.4,93,88,82,29.95,29.73,6,2,8,0.00
2013-12-2,30.2,26.4,21.4,30.0,25.5,18.6,99,96,88,29.73,29.51,13,6,18,0.00
2013-12-3,30.0,27.9,23.2,29.8,27.7,23.0,99,99,99,29.70,29.50,21,11,30,0.15
2013-12-4,30.4,27.2,17.8,30.1,26.9,17.6,99,99,99,29.69,29.17,23,8,28,0.40
2013-12-5,17.4,6.4,-5.6,17.2,4.0,-8.8,99,89,82,29.92,29.25,21,12,23,0.43
2013-12-6,4.3,-6.0,-11.9,-2.9,-10.8,-16.4,85,79,69,30.24,29.93,12,7,17,0.00
2013-12-7,-0.9,-11.2,-19.7,-11.0,-17.8,-25.4,79,72,59,30.31,30.23,14,5,14,0.00
2013-12-8,6.3,-5.1,-18.4,3.4,-9.6,-24.2,88,80,73,30.23,29.76,10,2,10,0.00
2013-12-9,3.0,-4.4,-11.4,-0.1,-9.7,-16.9,86,77,65,29.75,29.60,17,6,20,0.05
2013-12-10,1.9,-6.5,-13.2,-6.9,-12.5,-18.6,80,74,63,29.92,29.55,13,4,17,0.00
2013-12-11,-11.0,-13.5,-19.5,-16.6,-20.3,-25.7,76,70,67,30.17,29.93,8,5,12,0.00
2013-12-12,25.3,22.5,21.4,24.9,20.3,18.4,98,91,87,30.09,29.88,10,2,10,0.00
2013-12-13,29.7,29.7,29.7,29.4,29.4,29.4,99,99,99,30.33,29.80,8,8,8,0.00
2013-12-14,30.2,21.9,-4.9,30.0,20.1,-10.4,99,92,75,30.25,29.80,14,7,14,0.00
2013-12-15,-1.5,-11.2,-18.9,-10.9,-18.8,-25.2,77,68,52,30.14,30.04,10,4,12,0.00
2013-12-16,8.6,-0.1,-12.6,5.9,-5.4,-18.9,88,77,69,30.12,29.82,8,3,13,0.00
2013-12-17,21.9,12.1,-3.5,21.5,9.0,-7.7,99,87,74,30.08,29.81,14,6,17,0.00
2013-12-18,24.3,7.9,-5.3,13.5,2.5,-9.4,89,79,63,30.06,29.69,11,3,14,0.00
2013-12-19,13.1,8.3,1.9,8.4,1.9,-3.5,87,75,61,30.19,29.85,15,5,15,0.00
2013-12-20,25.7,9.4,1.4,16.3,4.4,-2.4,86,80,62,30.16,29.89,4,1,6,0.00
2013-12-21,20.7,13.2,3.4,14.2,9.2,-0.3,91,84,71,30.07,29.88,8,2,8,0.00
2013-12-22,16.0,7.1,0.3,13.9,3.3,-3.8,91,84,81,30.23,30.04,8,4,10,0.00
2013-12-23,0.7,-4.1,-11.0,-3.4,-9.4,-16.5,82,77,71,30.46,30.24,8,4,10,0.00
2013-12-24,5.7,-2.0,-15.9,1.9,-7.2,-21.8,85,77,69,30.43,30.10,8,2,10,0.00
2013-12-25,18.1,9.1,1.4,13.6,4.9,-3.5,86,82,77,30.10,30.02,8,3,13,0.00
2013-12-26,23.7,5.3,-4.9,10.8,-0.5,-9.4,83,76,57,30.18,30.08,3,1,4,0.00
2013-12-27,36.3,23.7,3.6,30.4,21.1,-0.3,99,90,79,30.17,29.81,18,4,18,0.00
2013-12-28,30.6,23.9,5.7,29.8,23.0,2.5,99,96,86,30.11,29.79,13,4,17,0.00
2013-12-29,5.5,-10.1,-20.0,2.4,-16.4,-26.0,86,72,58,30.28,30.11,14,6,17,0.00
2013-12-30,-2.4,-13.7,-22.7,-11.4,-19.8,-28.6,79,73,62,30.22,30.14,8,3,10,0.00
2013-12-31,-3.5,-16.0,-21.3,-15.4,-23.3,-27.5,77,68,54,30.40,30.12,9,4,11,0.00
2014-1-1,-1.5,-13.9,-21.1,-15.1,-22.1,-27.8,73,65,49,30.50,30.39,6,2,8,0.00
2014-1-2,4.1,-13.7,-23.6,-14.7,-23.5,-30.5,71,61,39,30.46,30.29,6,2,8,0.00